Temperature
11 11 10 9 9 9 9 9 8 8 8 7 7 7 7 6 6 6 6 6 6 6 6 6 6 6 6 7 8 9 10 11 11 11 11 11 11 11 11 12 12 12 12
12 11 10 10 10 9 9 9 9 9 8 8 7 7 7 7 6 6 6 6 5 5 5 6 6 6 6 6 7 8 9 10 10 10 10 10 10 9 9 10 11 11 11
12 11 10 10 10 10 10 10 10 9 9 8 8 7 7 7 6 6 6 5 5 5 5 5 5 5 5 6 6 8 9 10 10 10 10 10 9 8 7 8 9 9 10
11 11 10 10 10 10 10 10 10 10 9 9 8 8 7 7 6 6 6 5 5 5 5 5 5 5 5 6 6 7 8 9 9 9 9 9 8 6 6 6 7 7 8
11 10 10 10 10 10 10 10 10 10 9 9 8 8 7 7 6 6 6 5 5 5 5 5 5 5 6 6 6 7 8 8 9 9 9 9 8 6 6 6 6 7 7
11 10 10 10 10 10 10 10 10 9 9 9 9 8 7 7 6 6 5 5 5 5 4 5 5 5 6 6 7 7 7 7 8 8 8 8 8 7 6 6 6 6 6
11 10 10 10 10 10 10 10 10 9 9 9 9 8 8 7 7 6 6 5 5 5 5 5 5 6 6 6 6 7 7 7 6 6 7 7 7 6 5 5 5 5 5
11 11 10 10 10 10 10 9 9 9 9 9 9 8 8 7 7 6 6 5 5 5 5 5 5 6 6 6 6 6 6 6 6 6 6 6 5 5 4 4 4 4 4
11 11 10 9 9 10 9 9 9 9 9 9 8 8 8 7 7 6 6 6 5 5 5 5 6 6 5 5 5 5 5 5 5 5 5 5 5 4 3 3 3 3 3
11 10 10 9 9 9 9 9 9 9 9 8 8 8 7 7 6 6 5 5 5 5 5 5 5 5 5 5 5 5 4 4 4 4 4 4 4 4 3 2 2 2 2
11 11 10 9 9 9 9 9 9 8 8 8 8 7 7 6 6 6 6 5 5 5 5 5 5 5 4 4 4 4 3 3 3 3 3 3 3 2 1 1 1 1 1
13 12 11 10 9 9 9 9 8 8 8 7 7 7 6 6 6 6 6 5 5 5 5 5 5 4 4 4 3 3 3 2 2 2 2 2 2 1 -0 -1 -1 -1 -1
13 12 11 11 10 9 9 9 8 8 8 7 7 7 6 6 6 6 6 5 5 5 4 4 4 4 3 3 3 2 2 2 1 1 1 1 0 -0 -1 -2 -2 -2 -2
13 13 12 11 10 9 9 8 8 8 8 7 7 6 6 6 6 6 5 5 5 4 4 4 3 3 3 3 2 2 1 1 0 0 -0 -0 -1 -1 -2 -3 -3 -3 -3
14 13 13 12 11 10 9 8 8 8 8 7 7 6 6 6 6 6 5 5 5 4 4 3 3 3 2 2 2 1 1 0 -0 -1 -1 -1 -1 -2 -3 -4 -4 -4 -4
14 14 13 12 11 10 9 9 8 8 8 7 7 6 6 6 6 5 5 5 4 4 3 3 3 2 2 2 1 1 1 0 -0 -2 -2 -2 -2 -3 -3 -4 -5 -5 -5
15 14 13 12 11 10 10 9 8 8 7 7 7 6 6 6 6 5 5 5 4 4 3 3 2 2 2 1 1 1 0 -0 -1 -2 -2 -3 -3 -3 -4 -5 -5 -6 -6
15 14 13 13 12 11 10 9 8 8 7 7 7 6 6 6 5 5 5 4 4 4 3 2 2 1 1 1 0 0 -0 -0 -1 -1 -2 -3 -4 -4 -5 -5 -6 -6 -6
15 14 14 13 12 12 11 10 9 8 8 7 7 7 6 6 6 5 5 4 4 3 3 2 2 1 0 -0 -0 -0 -0 -1 -1 -1 -2 -3 -4 -5 -5 -6 -6 -6 -6
15 14 14 13 12 12 11 10 9 8 8 7 7 7 6 6 6 5 5 4 4 3 3 2 1 1 0 -1 -1 -1 -1 -1 -1 -1 -2 -3 -4 -4 -5 -6 -6 -6 -7
16 15 14 14 13 12 11 11 10 10 9 8 8 7 7 6 6 5 5 4 4 3 3 2 1 0 -0 -2 -3 -3 -3 -2 -1 -2 -2 -3 -3 -4 -5 -5 -6 -7 -7
16 16 15 14 14 13 12 12 11 10 10 9 9 8 8 7 6 5 5 4 4 3 2 2 1 0 -1 -2 -3 -5 -5 -4 -5 -3 -3 -3 -3 -4 -5 -6 -6 -7 -7
17 17 16 16 15 14 13 12 11 10 9 9 9 9 9 8 6 6 5 4 4 3 2 2 1 0 -1 -2 -3 -4 -5 -4 -4 -5 -5 -4 -4 -5 -5 -6 -7 -7 -7
17 17 16 16 16 15 14 13 12 12 12 13 12 11 10 9 8 7 6 5 4 3 3 2 1 0 -1 -2 -4 -3 -4 -6 -7 -6 -6 -6 -6 -6 -6 -7 -7 -7 -7
17 17 17 16 16 15 15 14 13 13 13 12 11 11 10 10 9 8 6 5 4 3 3 2 1 0 -0 -1 -3 -4 -5 -6 -7 -9 -7 -6 -6 -6 -6 -7 -7 -7 -8
17 17 17 17 16 16 15 15 15 14 14 13 12 12 11 10 10 9 7 6 4 4 3 2 1 0 -0 -1 -2 -3 -4 -6 -6 -7 -7 -7 -6 -6 -6 -7 -7 -7 -7
Wind_Speed
13 16 14 14 12 10 9 9 9 10 10 12 13 14 15 15 16 17 18 19 19 20 21 22 22 23 23 24 24 24 25 25 25 25 25 25 26 28 28 29 27 23 28
17 17 16 15 13 11 10 9 9 9 10 11 12 13 14 14 15 16 17 17 18 19 20 21 21 21 22 22 23 23 23 24 23 22 22 21 24 27 27 27 27 25 27
19 17 18 16 14 12 11 10 9 9 10 10 11 12 12 13 14 15 15 16 17 18 18 19 20 20 21 21 22 22 22 22 21 19 19 18 19 25 26 25 26 26 27
18 17 17 17 15 13 11 10 10 9 9 10 10 11 11 12 13 13 14 15 15 16 17 18 18 19 19 20 21 21 21 21 20 18 16 17 17 24 25 25 25 25 26
17 16 17 18 16 14 12 11 10 9 9 9 9 10 10 11 11 12 13 13 14 15 15 16 17 18 18 19 20 21 22 21 19 18 17 17 17 24 25 25 25 25 25
18 17 17 18 16 15 13 11 10 10 9 9 9 9 9 10 10 11 11 12 12 13 14 15 15 16 17 18 20 21 22 21 18 17 17 17 19 24 25 25 25 25 25
18 17 17 19 17 15 14 12 11 10 10 9 9 8 8 9 9 9 10 10 11 11 12 13 14 15 16 17 19 20 21 20 16 16 16 16 20 25 25 25 25 25 25
18 17 15 19 18 16 15 13 12 11 10 10 9 8 8 8 8 8 8 8 9 10 11 12 13 14 15 16 17 18 19 19 15 15 15 15 22 24 24 24 25 25 25
18 17 16 18 18 17 16 14 13 12 11 10 9 8 8 7 7 7 6 7 7 8 9 10 11 12 14 15 16 17 17 17 15 14 14 15 23 24 24 24 25 25 25
17 18 17 16 17 17 17 16 14 13 12 11 10 9 8 7 6 5 5 6 6 6 8 9 10 10 11 13 14 15 15 13 14 13 13 16 23 24 24 24 24 25 25
17 18 18 18 17 16 15 16 16 14 13 13 12 10 8 6 6 5 4 4 5 5 6 7 7 8 7 9 12 12 10 11 12 11 11 17 21 22 22 23 24 24 24
22 21 20 19 18 17 15 14 14 14 14 13 12 12 8 7 6 5 5 4 4 4 4 5 5 5 6 6 8 9 8 11 10 10 10 16 19 20 21 22 22 23 23
22 21 20 21 20 19 16 15 13 12 12 13 13 12 9 8 8 7 6 5 4 3 2 1 1 4 5 6 6 7 8 8 8 9 10 15 18 19 20 21 21 21 22
22 23 22 23 21 20 18 16 15 13 13 13 14 14 12 9 9 8 7 6 6 4 3 1 1 2 3 4 5 7 8 8 9 10 11 14 17 18 20 20 20 21 22
23 23 23 24 23 21 19 16 16 16 15 15 14 15 14 11 10 10 8 8 7 6 5 3 2 2 3 4 5 7 8 10 11 11 11 13 16 18 19 19 20 21 22
24 24 23 23 25 23 20 18 17 16 15 15 15 17 17 14 12 11 10 9 8 7 6 4 3 3 4 5 7 8 10 11 11 12 12 13 15 16 18 18 19 20 22
25 24 24 24 25 24 22 21 18 17 17 16 16 18 18 16 14 12 10 10 9 8 7 6 5 5 5 7 8 10 10 12 13 13 13 13 13 14 16 18 19 20 22
23 23 24 20 23 24 22 21 18 18 18 17 17 17 20 19 17 14 12 11 11 9 8 7 6 5 6 6 7 8 10 11 14 14 14 13 13 13 14 16 18 20 22
23 23 24 24 24 23 23 21 20 18 18 18 18 18 20 21 20 17 13 12 12 11 9 8 7 6 7 7 8 8 10 12 13 13 14 14 14 14 14 15 18 20 21
22 22 23 24 24 22 19 17 16 17 18 19 19 19 20 21 21 19 15 15 14 11 9 9 9 8 7 7 8 10 11 12 13 12 13 13 14 15 15 16 16 17 20
22 23 23 24 24 21 18 18 17 17 16 16 19 22 23 22 22 21 16 16 15 12 12 11 10 10 9 7 8 9 10 12 11 10 11 12 13 15 15 16 16 16 16
24 24 24 25 24 24 20 18 16 16 14 16 18 21 24 25 24 22 21 16 16 13 14 13 12 9 8 8 7 6 6 6 9 9 9 10 12 14 15 16 17 18 19
23 25 23 25 25 25 23 16 14 14 13 15 17 17 23 26 26 25 24 20 17 15 14 15 14 14 11 9 9 7 6 5 5 7 11 11 11 11 13 16 18 20 21
21 20 22 23 24 24 23 21 22 19 20 20 17 17 20 26 27 27 25 24 20 17 16 15 15 13 13 11 9 10 11 8 7 6 6 9 12 13 14 15 17 20 22
17 18 19 21 22 23 24 24 24 23 20 16 17 19 20 21 26 28 27 24 21 17 17 17 16 16 14 13 11 9 10 11 12 10 10 11 11 12 13 15 16 19 22
13 15 17 19 21 22 24 25 26 27 24 21 20 19 18 16 18 25 26 24 22 18 19 18 17 18 15 15 13 12 11 10 9 11 13 14 14 14 15 14 15 18 20
Wind_Direction
161 160 162 155 147 137 126 113 100 90 82 77 73 70 67 63 61 58 56 54 52 51 50 49 47 46 46 46 47 46 42 38 35 33 30 27 25 25 25 22 20 18 16
155 159 162 156 150 142 132 121 109 97 89 82 77 73 70 65 62 60 57 55 53 51 50 49 47 46 46 46 47 46 42 38 37 35 32 28 24 23 24 21 19 16 14
154 159 160 157 153 148 139 130 119 106 96 88 81 77 74 68 64 61 58 56 53 52 50 48 46 45 44 44 45 44 41 37 36 35 34 28 21 21 22 20 18 15 12
157 161 160 158 157 153 147 138 128 116 104 95 87 82 77 71 66 63 58 55 53 51 50 47 45 43 42 42 41 40 38 35 33 33 32 26 19 16 18 18 15 13 11
162 163 159 161 161 158 153 146 137 125 114 104 94 88 82 75 69 65 60 56 53 51 49 47 45 42 40 39 38 36 34 31 28 29 27 21 15 11 13 14 12 10 8
167 166 165 166 165 163 159 153 145 135 125 115 104 95 88 81 72 68 63 58 53 51 49 47 44 41 38 37 35 32 29 26 23 23 20 16 10 5 7 8 7 5 4
170 170 171 170 170 168 166 161 155 145 136 126 115 105 96 89 79 72 67 60 54 51 48 47 44 40 37 35 33 30 26 22 21 19 15 11 4 1 2 3 1 0 359
174 175 177 176 176 175 173 169 164 156 147 137 128 118 107 98 89 79 73 66 57 52 49 46 43 40 35 33 30 26 22 18 14 13 9 5 360 357 357 357 356 355 354
180 181 182 184 181 181 180 177 172 166 159 150 140 131 120 108 100 87 78 74 63 54 51 47 44 40 34 32 28 23 17 13 10 7 2 359 353 352 351 351 350 348 347
188 190 188 190 185 184 184 183 179 174 169 161 151 143 133 122 114 103 95 83 72 58 53 49 45 41 35 32 27 20 13 8 5 359 357 352 348 346 345 344 343 342 341
196 197 195 193 189 187 186 183 183 181 178 171 164 157 155 158 152 145 109 98 87 67 58 52 45 38 35 33 26 17 11 3 352 349 346 344 340 338 337 337 336 335 335
199 198 197 197 193 190 188 187 188 186 181 183 177 172 178 177 176 167 135 123 109 91 77 56 46 34 23 17 16 10 1 349 343 337 334 335 332 330 328 328 328 327 327
199 198 200 199 197 195 192 191 189 187 183 188 190 188 188 185 183 188 184 174 172 173 168 103 22 23 16 10 357 352 345 337 328 323 320 324 322 320 319 319 319 319 320
201 201 200 199 200 200 198 197 196 193 192 193 195 196 194 193 196 196 201 197 199 200 202 225 339 4 352 344 337 329 324 317 312 309 306 309 310 310 309 310 312 313 313
205 204 202 200 201 201 202 203 202 202 201 199 196 198 200 199 200 200 202 202 205 204 207 217 247 300 307 310 308 307 305 302 299 297 295 295 298 300 300 302 304 306 308
208 206 203 203 203 202 203 205 206 206 204 203 200 201 202 205 204 202 204 205 207 207 209 216 236 268 283 288 289 290 291 292 288 288 286 288 287 289 291 294 297 301 302
209 207 204 203 204 204 206 208 208 207 204 204 204 203 203 207 207 206 208 207 207 204 207 215 223 247 265 273 277 282 284 283 282 282 281 279 280 279 280 284 289 293 297
210 207 206 202 204 206 207 208 209 209 207 208 206 204 205 207 208 209 211 211 206 204 210 216 226 240 250 262 272 277 277 277 276 276 273 270 270 272 274 276 281 287 292
211 207 206 203 205 205 207 208 211 211 211 211 208 207 206 207 208 210 214 212 205 207 211 214 221 232 245 253 264 273 274 272 272 269 265 263 262 263 268 274 276 281 285
212 208 206 205 206 205 206 209 212 215 216 215 213 211 207 206 207 210 214 212 207 209 211 212 219 223 237 251 264 270 270 269 268 263 261 259 258 259 264 269 275 277 280
210 208 206 205 205 203 203 206 209 213 214 216 216 214 210 209 207 209 212 211 209 212 214 214 218 226 230 234 255 266 264 257 257 254 253 255 258 261 264 267 272 276 280
210 208 207 207 204 204 205 206 210 214 218 218 217 218 215 211 209 209 212 211 209 213 215 215 215 223 228 220 233 266 280 256 233 244 253 257 262 266 266 268 272 276 280
214 210 208 207 206 206 205 205 207 214 220 217 217 217 216 214 211 210 212 212 211 211 214 213 212 217 224 219 220 234 257 277 288 249 251 257 263 266 268 272 274 276 279
220 216 215 212 210 207 204 206 205 208 214 217 216 217 215 214 214 212 212 212 212 212 215 214 212 216 222 229 222 225 236 254 269 286 252 249 256 263 266 270 274 276 277
223 218 218 217 215 211 208 210 212 219 224 224 220 219 217 214 215 214 212 211 212 212 214 213 210 213 216 224 226 225 232 242 241 250 274 278 272 269 271 274 276 276 276
226 218 216 217 218 214 212 214 216 221 223 223 221 219 217 216 214 215 213 212 211 211 212 212 211 213 215 221 226 230 233 236 240 247 265 276 282 282 281 279 277 276 275
Height
1585 1588 1589 1591 1592 1593 1593 1593 1593 1592 1591 1591 1590 1589 1587 1586 1585 1583 1582 1580 1579 1577 1575 1573 1571 1569 1568 1565 1563 1561 1559 1558 1557 1556 1556 1555 1555 1554 1553 1552 1551 1550 1549
1584 1586 1588 1590 1591 1592 1592 1593 1592 1592 1591 1591 1590 1589 1587 1586 1585 1583 1582 1580 1579 1577 1576 1574 1572 1570 1568 1566 1563 1561 1559 1557 1556 1555 1554 1554 1553 1553 1552 1551 1550 1550 1549
1582 1585 1587 1589 1590 1591 1592 1592 1592 1592 1591 1590 1590 1589 1587 1586 1585 1584 1582 1581 1579 1577 1576 1574 1572 1570 1568 1566 1564 1561 1559 1557 1556 1554 1553 1552 1552 1551 1551 1550 1549 1548 1548
1581 1584 1586 1587 1589 1590 1591 1591 1591 1591 1591 1590 1589 1588 1587 1586 1585 1583 1582 1581 1579 1577 1576 1574 1572 1570 1568 1566 1564 1562 1560 1558 1557 1555 1553 1552 1551 1551 1550 1548 1547 1546 1545
1579 1582 1584 1586 1587 1589 1590 1590 1590 1590 1590 1589 1589 1588 1587 1585 1584 1583 1582 1580 1579 1577 1575 1574 1572 1570 1569 1567 1565 1563 1561 1559 1558 1556 1555 1553 1552 1551 1550 1548 1546 1545 1543
1578 1581 1583 1584 1586 1587 1588 1589 1589 1589 1589 1589 1588 1587 1586 1585 1584 1582 1581 1580 1578 1577 1575 1574 1572 1570 1569 1567 1565 1564 1562 1560 1559 1557 1555 1554 1552 1551 1550 1548 1546 1544 1543
1576 1579 1581 1582 1584 1586 1587 1588 1588 1588 1588 1588 1587 1586 1585 1584 1583 1582 1580 1579 1577 1576 1575 1573 1572 1570 1569 1567 1565 1564 1562 1560 1559 1557 1555 1553 1552 1550 1549 1547 1545 1544 1542
1574 1576 1579 1580 1582 1584 1585 1586 1586 1587 1587 1586 1586 1585 1584 1583 1582 1581 1580 1578 1577 1575 1574 1573 1571 1570 1568 1567 1565 1563 1562 1560 1558 1556 1554 1553 1551 1549 1547 1546 1544 1542 1540
1572 1574 1576 1579 1580 1582 1583 1584 1585 1585 1585 1585 1585 1584 1583 1582 1581 1580 1579 1577 1576 1574 1573 1572 1570 1569 1568 1566 1564 1563 1561 1559 1557 1555 1553 1551 1549 1547 1546 1544 1542 1540 1538
1569 1571 1573 1576 1578 1579 1580 1581 1582 1583 1583 1583 1583 1582 1581 1580 1579 1578 1577 1576 1575 1573 1572 1571 1570 1568 1567 1565 1563 1562 1560 1558 1556 1553 1551 1549 1547 1545 1543 1541 1539 1537 1536
1564 1566 1569 1572 1574 1576 1578 1578 1579 1580 1580 1580 1580 1580 1579 1578 1577 1576 1575 1574 1573 1572 1571 1570 1569 1567 1566 1564 1562 1560 1558 1556 1554 1551 1549 1547 1544 1542 1540 1539 1537 1535 1533
1559 1561 1564 1567 1569 1572 1573 1575 1576 1576 1577 1577 1577 1577 1576 1575 1575 1574 1573 1572 1571 1570 1569 1568 1567 1565 1564 1562 1560 1558 1556 1553 1551 1549 1546 1543 1541 1539 1537 1535 1534 1532 1530
1555 1557 1559 1562 1564 1567 1568 1570 1571 1572 1573 1573 1573 1573 1573 1572 1572 1571 1571 1570 1569 1568 1567 1565 1564 1563 1562 1560 1558 1555 1553 1550 1548 1545 1543 1540 1537 1535 1533 1532 1530 1529 1527
1550 1552 1554 1556 1559 1561 1563 1565 1567 1567 1568 1569 1569 1570 1570 1569 1569 1568 1568 1567 1566 1565 1564 1563 1562 1560 1559 1557 1555 1552 1550 1547 1544 1541 1538 1535 1533 1530 1528 1527 1526 1525 1524
1544 1546 1548 1550 1553 1555 1557 1559 1561 1562 1563 1564 1565 1565 1565 1565 1565 1565 1564 1563 1563 1562 1561 1560 1558 1557 1555 1554 1551 1549 1546 1543 1540 1537 1534 1531 1528 1525 1523 1522 1521 1520 1519
1537 1540 1542 1544 1547 1549 1551 1553 1555 1557 1558 1559 1560 1560 1561 1561 1561 1561 1560 1559 1559 1558 1557 1556 1554 1553 1551 1550 1547 1545 1542 1539 1536 1533 1530 1526 1524 1521 1519 1517 1516 1515 1514
1531 1534 1536 1538 1540 1542 1545 1547 1549 1551 1553 1553 1554 1555 1555 1556 1556 1556 1555 1555 1554 1553 1552 1551 1550 1549 1547 1545 1543 1540 1538 1535 1532 1529 1525 1522 1519 1516 1514 1511 1510 1509 1508
1524 1526 1529 1531 1533 1535 1538 1540 1542 1544 1546 1547 1548 1549 1549 1550 1550 1550 1550 1549 1549 1548 1547 1546 1545 1543 1542 1540 1538 1536 1533 1530 1527 1524 1521 1518 1515 1512 1509 1506 1504 1503 1502
1516 1519 1521 1523 1526 1528 1531 1533 1535 1537 1539 1540 1540 1541 1542 1543 1544 1544 1544 1543 1543 1542 1541 1540 1539 1538 1536 1534 1532 1530 1528 1525 1522 1519 1516 1513 1510 1507 1504 1501 1499 1496 1494
1508 1511 1513 1516 1518 1522 1524 1526 1527 1528 1529 1531 1531 1533 1534 1535 1536 1537 1537 1537 1536 1536 1535 1534 1533 1531 1530 1528 1526 1524 1522 1519 1516 1514 1511 1508 1505 1502 1499 1496 1494 1491 1488
1500 1502 1504 1507 1510 1512 1513 1515 1516 1517 1519 1521 1522 1524 1526 1527 1528 1529 1529 1529 1529 1528 1528 1528 1527 1525 1523 1521 1519 1517 1514 1512 1510 1508 1505 1502 1500 1497 1494 1491 1488 1485 1481
1491 1493 1496 1498 1501 1503 1504 1507 1509 1511 1511 1512 1514 1515 1516 1518 1519 1519 1520 1521 1521 1521 1520 1520 1519 1519 1517 1515 1514 1513 1510 1508 1503 1502 1500 1497 1494 1491 1488 1485 1482 1479 1475
1483 1485 1488 1491 1493 1495 1498 1500 1501 1501 1501 1502 1502 1504 1506 1507 1508 1509 1511 1512 1512 1512 1512 1511 1511 1511 1511 1509 1507 1507 1506 1502 1500 1495 1493 1491 1488 1484 1481 1478 1475 1472 1468
1477 1480 1483 1485 1487 1488 1490 1490 1490 1489 1489 1490 1493 1494 1496 1497 1498 1499 1501 1502 1502 1502 1502 1503 1503 1503 1503 1502 1501 1498 1498 1496 1494 1489 1486 1484 1481 1478 1475 1471 1468 1465 1461
1473 1474 1476 1478 1479 1480 1481 1481 1481 1481 1482 1484 1484 1484 1485 1485 1486 1487 1489 1490 1491 1491 1493 1493 1493 1493 1493 1494 1493 1492 1490 1489 1487 1484 1479 1478 1475 1472 1469 1466 1461 1457 1453
1468 1468 1469 1470 1471 1472 1472 1472 1472 1472 1473 1474 1473 1473 1473 1473 1473 1475 1476 1478 1479 1480 1482 1483 1483 1484 1484 1484 1484 1483 1483 1481 1480 1478 1473 1469 1467 1464 1462 1458 1454 1450 1445